This demonstration page uses our WeatherBlox Daily Observations layout. Learn more.

Left ArrowRight Arrow

Hourly Observations for September 25, 2015

Temp ( °F °C ) Dew Point ( °F °C ) Humidity (%) Winds ( mph kmh ) Pressure ( in mb ) Visibility ( mi km ) Precip ( " mm )
12:53 am 00:53 Clear 65 18.3 45 7.2 49 49 Calm 29.86 1011 10 16 0.00 0.00
1:53 am 01:53 Clear 62 16.7 45 7.2 54 54 undefined N/A 29.86 1011 10 16 0.00 0.00
2:53 am 02:53 Clear 60 15.6 45 7.2 58 58 Calm 29.86 1011 10 16 0.00 0.00
3:53 am 03:53 Clear 60 15.6 46 7.8 60 60 Calm 29.85 1011 10 16 0.00 0.00
4:53 am 04:53 Clear 58 14.4 46 7.8 65 65 Calm 29.85 1011 10 16 0.00 0.00
5:53 am 05:53 Clear 58 14.4 46 7.8 65 65 Calm 29.85 1011 10 16 0.00 0.00
6:53 am 06:53 Clear 57 13.9 45 7.2 64 64 Calm 29.86 1011 10 16 0.00 0.00
7:53 am 07:53 Sunny 59 15 46 7.8 62 62 NNW 3 6 29.88 1012 10 16 0.00 0.00
8:53 am 08:53 Sunny 70 21.1 46 7.8 42 42 Calm 29.88 1012 10 16 0.00 0.00
9:53 am 09:53 Sunny 78 25.6 41 5 27 27 N 3 6 29.88 1012 10 16 0.00 0.00
10:53 am 10:53 Sunny 83 28.3 41 5 23 23 VRB 3 6 29.88 1012 10 16 0.00 0.00
11:53 am 11:53 Sunny 88 31.1 40 4.4 18 18 SSW 5 7 29.87 1012 10 16 0.00 0.00
12:53 pm 12:53 Sunny 90 32.2 39 3.9 17 17 S 5 7 29.86 1011 10 16 0.00 0.00
1:53 pm 13:53 Sunny 92 33.3 40 4.4 16 16 SW 7 11 29.84 1011 10 16 0.00 0.00
2:53 pm 14:53 Sunny 95 35 43 6.1 17 17 S 7 11 29.82 1010 10 16 0.00 0.00
3:53 pm 15:53 Sunny 96 35.6 41 5 15 15 SSE 10 17 29.80 1009 10 16 0.00 0.00
4:53 pm 16:53 Sunny 95 35 38 3.3 14 14 S 10 17 29.79 1009 10 16 0.00 0.00
5:53 pm 17:53 Sunny 94 34.4 37 2.8 14 14 SSE 9 15 29.79 1009 10 16 0.00 0.00
6:53 pm 18:53 Sunny 87 30.6 43 6.1 21 21 SSE 5 7 29.79 1009 10 16 0.00 0.00
7:53 pm 19:53 Clear 83 28.3 45 7.2 26 26 Calm 29.80 1009 10 16 0.00 0.00
8:53 pm 20:53 Clear 82 27.8 44 6.7 26 26 ESE 3 6 29.81 1009 10 16 0.00 0.00
9:53 pm 21:53 Clear 73 22.8 45 7.2 37 37 NE 5 7 29.82 1010 10 16 0.00 0.00
10:53 pm 22:53 Clear 72 22 45 7 38 38 Calm 29.85 1011 10 16 0.00 0.00
11:53 pm 23:53 Clear 70 21.1 46 7.8 42 42 Calm 29.84 1010 10 16 0.00 0.00

Powered by AerisWeather